• în România
  • Lista ţărilor
  • Pe 7 zile
  • Temperatura apei
  • Hartă satelitară
  • Meteo pe hartă
  • Widget-uri
  • user-avatar
    Intrare

    Meteo pe oră la Hobart

    Astăzi, 16 Ianuarie, Luni

    Timp Temperatura Precipitaţii Vânt Presiune Umiditate
    00:00 +12°C° 0 mm 4 m/s 745 mmHg 85%
    01:00 +12°C° 0 mm 5 m/s 745 mmHg 85%
    02:00 +11°C° 0 mm 4 m/s 745 mmHg 86%
    03:00 +11°C° 0 mm 4 m/s 744 mmHg 88%
    04:00 +11°C° 0 mm 4 m/s 744 mmHg 90%
    05:00 +12°C° 0 mm 4 m/s 744 mmHg 85%
    06:00 +13°C° 0 mm 4 m/s 745 mmHg 80%
    07:00 +14°C° 0 mm 4 m/s 745 mmHg 75%
    08:00 +15°C° 0 mm 4 m/s 745 mmHg 69%
    09:00 +18°C° 0 mm 4 m/s 745 mmHg 63%
    10:00 +20°C° 0 mm 3 m/s 745 mmHg 53%
    11:00 +21°C° 0 mm 3 m/s 744 mmHg 49%
    12:00 +23°C° 0 mm 4 m/s 744 mmHg 45%
    13:00 +25°C° 0 mm 4 m/s 744 mmHg 41%
    14:00 +25°C° 0 mm 4 m/s 743 mmHg 41%
    15:00 +25°C° 0 mm 4 m/s 743 mmHg 41%
    16:00 +26°C° 0 mm 4 m/s 743 mmHg 40%
    17:00 +24°C° 0 mm 3 m/s 743 mmHg 47%
    18:00 +21°C° 0 mm 3 m/s 742 mmHg 54%
    19:00 +19°C° 0 mm 2 m/s 742 mmHg 61%
    20:00 +17°C° 0 mm 2 m/s 742 mmHg 69%
    21:00 +15°C° 0 mm 2 m/s 742 mmHg 77%
    22:00 +13°C° 0 mm 2 m/s 742 mmHg 84%
    23:00 +13°C° 0 mm 2 m/s 742 mmHg 83%

    Mâine, 17 Ianuarie, Marţi

    Timp Temperatura Precipitaţii Vânt Presiune Umiditate
    00:00 +12°C° 0 mm 2 m/s 741 mmHg 83%
    01:00 +12°C° 0 mm 2 m/s 741 mmHg 82%
    02:00 +12°C° 0 mm 2 m/s 741 mmHg 80%
    03:00 +10°C° 0 mm 2 m/s 741 mmHg 78%
    04:00 +10°C° 0 mm 2 m/s 740 mmHg 76%
    05:00 +13°C° 0 mm 2 m/s 740 mmHg 71%
    06:00 +14°C° 0 mm 2 m/s 741 mmHg 65%
    07:00 +16°C° 0 mm 2 m/s 741 mmHg 59%
    08:00 +19°C° 0 mm 2 m/s 740 mmHg 52%
    09:00 +21°C° 0 mm 3 m/s 740 mmHg 45%
    10:00 +24°C° 0 mm 3 m/s 740 mmHg 38%
    11:00 +24°C° 0 mm 3 m/s 740 mmHg 42%
    12:00 +25°C° 0 mm 3 m/s 739 mmHg 45%
    13:00 +25°C° 0 mm 3 m/s 739 mmHg 48%
    14:00 +22°C° 0,2 mm 3 m/s 739 mmHg 55%
    15:00 +21°C° 0,2 mm 3 m/s 738 mmHg 61%
    16:00 +20°C° 0,2 mm 2 m/s 738 mmHg 68%
    17:00 +19°C° 0,3 mm 2 m/s 738 mmHg 74%
    18:00 +18°C° 0,3 mm 2 m/s 738 mmHg 80%
    19:00 +17°C° 0,3 mm 2 m/s 738 mmHg 86%
    20:00 +16°C° 0,2 mm 3 m/s 738 mmHg 88%
    21:00 +16°C° 0,2 mm 3 m/s 738 mmHg 90%
    22:00 +14°C° 0,2 mm 3 m/s 738 mmHg 93%
    23:00 +13°C° 0,1 mm 4 m/s 737 mmHg 91%

    Poimâine, 18 Ianuarie, Miercuri

    Timp Temperatura Precipitaţii Vânt Presiune Umiditate
    00:00 +13°C° 0,1 mm 6 m/s 737 mmHg 90%
    01:00 +11°C° 0,1 mm 7 m/s 737 mmHg 88%
    02:00 +10°C° 0,1 mm 8 m/s 737 mmHg 85%
    03:00 +10°C° 0,1 mm 9 m/s 737 mmHg 82%
    04:00 +8°C° 0,1 mm 11 m/s 737 mmHg 79%
    05:00 +9°C° 0 mm 11 m/s 738 mmHg 75%
    06:00 +9°C° 0 mm 11 m/s 739 mmHg 71%
    07:00 +9°C° 0 mm 11 m/s 740 mmHg 67%
    08:00 +11°C° 0 mm 11 m/s 740 mmHg 64%
    09:00 +12°C° 0 mm 11 m/s 741 mmHg 60%
    10:00 +13°C° 0 mm 11 m/s 742 mmHg 56%
    11:00 +14°C° 0 mm 10 m/s 742 mmHg 52%
    12:00 +16°C° 0 mm 10 m/s 743 mmHg 47%
    13:00 +16°C° 0 mm 10 m/s 743 mmHg 43%
    14:00 +16°C° 0 mm 9 m/s 744 mmHg 43%
    15:00 +16°C° 0 mm 9 m/s 744 mmHg 43%
    16:00 +16°C° 0 mm 9 m/s 745 mmHg 43%
    17:00 +15°C° 0 mm 8 m/s 745 mmHg 49%
    18:00 +14°C° 0 mm 7 m/s 746 mmHg 55%
    19:00 +12°C° 0 mm 7 m/s 747 mmHg 61%
    20:00 +10°C° 0 mm 6 m/s 747 mmHg 69%
    21:00 +8°C° 0 mm 5 m/s 748 mmHg 78%
    22:00 +7°C° 0 mm 5 m/s 749 mmHg 86%
    23:00 +6°C° 0 mm 4 m/s 749 mmHg 89%

    19 Ianuarie, Joi

    Timp Temperatura Precipitaţii Vânt Presiune Umiditate
    00:00 +6°C° 0 mm 4 m/s 749 mmHg 92%
    01:00 +5°C° 0 mm 4 m/s 749 mmHg 95%
    02:00 +4°C° 0 mm 4 m/s 749 mmHg 95%
    03:00 +4°C° 0 mm 4 m/s 749 mmHg 96%
    04:00 +3°C° 0 mm 3 m/s 749 mmHg 96%
    05:00 +5°C° 0 mm 3 m/s 749 mmHg 89%
    06:00 +8°C° 0 mm 3 m/s 749 mmHg 82%
    07:00 +10°C° 0 mm 2 m/s 750 mmHg 74%
    08:00 +14°C° 0 mm 2 m/s 749 mmHg 63%
    09:00 +16°C° 0 mm 2 m/s 749 mmHg 53%
    10:00 +19°C° 0 mm 2 m/s 749 mmHg 42%
    11:00 +20°C° 0 mm 2 m/s 748 mmHg 39%
    12:00 +21°C° 0 mm 3 m/s 748 mmHg 36%
    13:00 +22°C° 0 mm 3 m/s 747 mmHg 34%
    14:00 +21°C° 0 mm 3 m/s 747 mmHg 37%
    15:00 +20°C° 0 mm 4 m/s 746 mmHg 41%
    16:00 +19°C° 0 mm 4 m/s 746 mmHg 44%
    17:00 +17°C° 0 mm 4 m/s 746 mmHg 53%
    18:00 +14°C° 0 mm 3 m/s 746 mmHg 63%
    19:00 +12°C° 0 mm 3 m/s 746 mmHg 72%
    20:00 +12°C° 0 mm 3 m/s 745 mmHg 75%
    21:00 +11°C° 0 mm 3 m/s 745 mmHg 78%
    22:00 +10°C° 0 mm 3 m/s 745 mmHg 82%
    23:00 +10°C° 0 mm 3 m/s 744 mmHg 83%

    20 Ianuarie, Vineri

    Timp Temperatura Precipitaţii Vânt Presiune Umiditate
    00:00 +10°C° 0 mm 3 m/s 744 mmHg 85%
    01:00 +10°C° 0 mm 3 m/s 743 mmHg 87%
    02:00 +10°C° 0,1 mm 3 m/s 743 mmHg 89%
    03:00 +10°C° 0,1 mm 3 m/s 742 mmHg 91%
    04:00 +10°C° 0,1 mm 3 m/s 741 mmHg 92%
    05:00 +10°C° 0,3 mm 2 m/s 741 mmHg 93%
    06:00 +12°C° 0,3 mm 2 m/s 741 mmHg 93%
    07:00 +12°C° 0,3 mm 2 m/s 741 mmHg 94%
    08:00 +14°C° 0,3 mm 2 m/s 741 mmHg 85%
    09:00 +16°C° 0,3 mm 1 m/s 741 mmHg 77%
    10:00 +19°C° 0,3 mm 1 m/s 741 mmHg 68%
    11:00 +19°C° 0,1 mm 2 m/s 741 mmHg 65%
    12:00 +19°C° 0,1 mm 3 m/s 740 mmHg 61%
    13:00 +20°C° 0,1 mm 4 m/s 740 mmHg 58%
    14:00 +19°C° 0,1 mm 4 m/s 740 mmHg 58%
    15:00 +19°C° 0,1 mm 4 m/s 740 mmHg 58%
    16:00 +19°C° 0,1 mm 4 m/s 740 mmHg 57%
    17:00 +18°C° 0 mm 3 m/s 741 mmHg 64%
    18:00 +16°C° 0 mm 3 m/s 742 mmHg 70%
    19:00 +14°C° 0 mm 3 m/s 742 mmHg 77%
    20:00 +13°C° 0 mm 2 m/s 743 mmHg 82%
    21:00 +10°C° 0 mm 2 m/s 743 mmHg 88%
    22:00 +9°C° 0 mm 1 m/s 743 mmHg 94%
    23:00 +8°C° 0 mm 2 m/s 743 mmHg 94%

    21 Ianuarie, Sâmbătă

    Timp Temperatura Precipitaţii Vânt Presiune Umiditate
    00:00 +8°C° 0 mm 2 m/s 743 mmHg 95%
    01:00 +8°C° 0 mm 2 m/s 743 mmHg 95%
    02:00 +8°C° 0 mm 2 m/s 743 mmHg 94%
    03:00 +8°C° 0 mm 3 m/s 743 mmHg 94%
    04:00 +7°C° 0 mm 3 m/s 743 mmHg 93%
    05:00 +9°C° 0 mm 3 m/s 743 mmHg 88%
    06:00 +10°C° 0 mm 3 m/s 744 mmHg 82%
    07:00 +12°C° 0 mm 3 m/s 744 mmHg 77%
    08:00 +14°C° 0 mm 3 m/s 745 mmHg 70%
    09:00 +17°C° 0 mm 3 m/s 745 mmHg 64%
    10:00 +18°C° 0 mm 4 m/s 745 mmHg 57%
    11:00 +19°C° 0 mm 4 m/s 745 mmHg 54%
    12:00 +20°C° 0 mm 5 m/s 745 mmHg 52%
    13:00 +21°C° 0 mm 5 m/s 745 mmHg 49%
    14:00 +21°C° 0 mm 5 m/s 745 mmHg 48%
    15:00 +21°C° 0 mm 5 m/s 746 mmHg 47%
    16:00 +21°C° 0 mm 5 m/s 746 mmHg 46%
    17:00 +20°C° 0 mm 5 m/s 746 mmHg 53%
    18:00 +19°C° 0 mm 4 m/s 747 mmHg 60%
    19:00 +17°C° 0 mm 3 m/s 747 mmHg 67%
    20:00 +14°C° 0 mm 3 m/s 748 mmHg 76%
    21:00 +12°C° 0 mm 2 m/s 748 mmHg 85%
    22:00 +10°C° 0 mm 1 m/s 748 mmHg 94%
    23:00 +10°C° 0 mm 1 m/s 748 mmHg 94%
    Arată mai mult